Weather History for Hanford, WA

Change the Weather History Date:

Monday, November 19, 2012

  Actual Average Record
Temperature  
Mean Temperature 56 °F -  
Max Temperature 63 °F 46 °F 65 °F (2002)
Min Temperature 48 °F 31 °F 20 °F (2000)
Degree Days  
Heating Degree Days 10    
Growing Degree Days 6 (Base 50)    
Moisture  
Dew Point 39 °F    
Average Humidity 55    
Maximum Humidity 77    
Minimum Humidity 39    
Precipitation  
Precipitation 0.01 in - - ()
Sea Level Pressure  
Sea Level Pressure 29.66 in    
Wind  
Wind Speed 19 mph (SSE)    
Max Wind Speed 28 mph    
Max Gust Speed 39 mph    
Visibility 15 miles    
Events Rain    
Averages and records for this station are not official NWS values.
T = Trace of Precipitation, MM = Missing Value Source: NWS Daily Summary

Daily Weather History Graph

Daily Weather History Graph

Search for Another Location

Airport:

Trip Planner

Search our weather history database for the weather conditions in past years. The results will help you decide how hot, cold, wet, or windy it might be!

Date:

Astronomy

Nov. 19, 2012 Rise Set
Actual Time 7:06 AM PST 4:20 PM PST
Civil Twilight 6:33 AM PST 4:53 PM PST
Nautical Twilight 5:56 AM PST 5:30 PM PST
Astronomical Twilight 5:20 AM PST 6:06 PM PST
Moon 12:04 PM PST (11/19) 11:03 PM PST (11/19)
Length of Visible Light 10h 20m
Length of Day
9h 13m
Waxing Crescent, 42% of the Moon is Illuminated
Nov 19
Waxing Crescent
Nov 20
First Quarter
Nov 28
Full
Dec 6
Last Quarter
Dec 13
New

Hourly Weather History & Observations

Time (PST) Temp. Dew Point Humidity Pressure Visibility Wind Dir Wind Speed Gust Speed Precip Events Conditions
12:50 AM 50.4 °F 38.3 °F 63% 29.75 in 15.0 mi South 24.2 mph 32.2 mph N/A   Overcast
1:50 AM 50.4 °F 39.4 °F 66% 29.75 in 15.0 mi SSE 15.0 mph - N/A   Overcast
2:50 AM 51.4 °F 38.1 °F 60% 29.75 in 15.0 mi SSE 11.5 mph - N/A Rain Light Rain
3:50 AM 48.9 °F 39.0 °F 69% 29.71 in 15.0 mi SE 6.9 mph - N/A Rain Light Rain
4:50 AM 50.9 °F 38.3 °F 62% 29.71 in 15.0 mi ESE 10.4 mph - N/A   Overcast
5:50 AM 53.1 °F 37.2 °F 55% 29.69 in 15.0 mi SSE 18.4 mph 29.9 mph N/A   Overcast
6:50 AM 54.1 °F 36.1 °F 51% 29.68 in 15.0 mi SSE 23.0 mph 32.2 mph N/A   Mostly Cloudy
7:50 AM 56.7 °F 35.4 °F 45% 29.67 in 15.0 mi SSE 27.6 mph 34.5 mph N/A   Overcast
8:50 AM 57.4 °F 35.8 °F 44% 29.67 in 15.0 mi SSE 21.9 mph 29.9 mph N/A   Overcast
9:50 AM 58.5 °F 35.8 °F 43% 29.67 in 15.0 mi SSE 26.5 mph 39.1 mph N/A   Overcast
10:50 AM 59.5 °F 36.5 °F 42% 29.65 in 15.0 mi SSE 25.3 mph 34.5 mph N/A   Overcast
11:50 AM 60.3 °F 37.0 °F 42% 29.63 in 15.0 mi ESE 25.3 mph 35.7 mph N/A   Overcast
12:50 PM 60.6 °F 37.6 °F 42% 29.60 in 15.0 mi SE 13.8 mph 20.7 mph N/A   Overcast
1:50 PM 61.7 °F 37.4 °F 41% 29.59 in 15.0 mi SE 13.8 mph 20.7 mph N/A   Overcast
2:50 PM 63.3 °F 37.8 °F 39% 29.57 in 15.0 mi South 27.6 mph 35.7 mph N/A   Overcast
3:50 PM 61.9 °F 40.3 °F 45% 29.59 in 15.0 mi South 15.0 mph 24.2 mph 0.00 in Rain Light Rain
4:50 PM 60.8 °F 40.8 °F 48% 29.59 in 15.0 mi South 8.1 mph - 0.00 in Rain Light Rain
5:50 PM 56.7 °F 46.2 °F 68% 29.62 in 15.0 mi WSW 10.4 mph - 0.00 in Rain Light Rain
6:50 PM 54.5 °F 47.1 °F 76% 29.64 in 15.0 mi SW 18.4 mph 26.5 mph 0.01 in Rain Light Rain
10:50 PM 52.0 °F 45.0 °F 77% 29.69 in 15.0 mi SSW 20.7 mph 35.7 mph N/A Rain Light Rain
11:50 PM 53.4 °F 44.2 °F 71% 29.72 in 15.0 mi SSW 20.7 mph 29.9 mph N/A Rain Light Rain